OE6ACM-14 Weather Reports


time (UTC)temp
C
wind
direction
speed
KPH
gust
KPH
rain 1hr
cm
rain 24hr
cm
rain mn
cm
humidity
%
barometer
mb
20260502232136 7 0.0 0.0 0.00 0.00 0.00 61 931.5
20260502231636 7 0.0 0.0 0.00 0.00 0.00 61 931.5
20260502231136 7 0.0 0.0 0.00 0.00 0.00 61 931.5
20260502230636 7 0.0 0.0 0.00 0.00 0.00 60 931.6
20260502230136 7 0.0 0.0 0.00 0.00 0.00 60 931.5
20260502225636 7 0.0 0.0 0.00 0.00 0.00 60 931.6
20260502225136 7 0.0 0.0 0.00 0.00 0.00 59 931.6
20260502224636 7 0.0 0.0 0.00 0.00 0.00 60 931.6
20260502224136 7 0.0 0.0 0.00 0.00 0.00 60 931.6
20260502223636 7 0.0 0.0 0.00 0.00 0.00 60 931.6
20260502223136 7 0.0 0.0 0.00 0.00 0.00 59 931.7
20260502222636 7 0.0 0.0 0.00 0.00 0.00 58 931.7
20260502222136 7 0.0 0.0 0.00 0.00 0.00 58 931.6
20260502221636 8 0.0 0.0 0.00 0.00 0.00 58 931.7
20260502221136 8 0.0 0.0 0.00 0.00 0.00 58 931.7
20260502220636 8 0.0 0.0 0.00 0.00 0.00 57 931.6
20260502220136 8 0.0 0.0 0.00 0.00 0.00 57 931.6
20260502215636 8 0.0 0.0 0.00 0.00 0.00 57 931.6
20260502215136 8 0.0 0.0 0.00 0.00 0.00 56 931.6
20260502214636 8 0.0 0.0 0.00 0.00 0.00 56 931.6
20260502214136 8 0.0 0.0 0.00 0.00 0.00 56 931.5
20260502213636 8 0.0 0.0 0.00 0.00 0.00 56 931.5
20260502213136 8 0.0 0.0 0.00 0.00 0.00 56 931.5
20260502212636 8 0.0 0.0 0.00 0.00 0.00 56 931.5
20260502212136 8 0.0 0.0 0.00 0.00 0.00 55 931.5
20260502211636 10 0.0 0.0 0.00 0.00 0.00 54 931.5
20260502211136 9 0.0 0.0 0.00 0.00 0.00 54 931.5
20260502210636 10 0.0 0.0 0.00 0.00 0.00 53 931.5
20260502210136 10 0.0 0.0 0.00 0.00 0.00 52 931.4
20260502205636 10 0.0 0.0 0.00 0.00 0.00 51 931.5
20260502205009 10 0.0 0.0 0.00 0.00 0.00 51 931.5
20260502204509 10 0.0 0.0 0.00 0.00 0.00 51 931.5
20260502204009 10 0.0 0.0 0.00 0.00 0.00 52 931.5
20260502203509 10 0.0 0.0 0.00 0.00 0.00 51 931.5
20260502203009 11 0.0 0.0 0.00 0.00 0.00 50 931.5
20260502202509 11 0.0 0.0 0.00 0.00 0.00 50 931.5
20260502202009 11 0.0 0.0 0.00 0.00 0.00 50 931.6
20260502201509 11 0.0 0.0 0.00 0.00 0.00 49 931.6
20260502201009 11 0.0 0.0 0.00 0.00 0.00 49 931.5
20260502200509 11 0.0 0.0 0.00 0.00 0.00 49 931.5
20260502200009 11 0.0 0.0 0.00 0.00 0.00 49 931.5
20260502195509 11 0.0 0.0 0.00 0.00 0.00 50 931.6
20260502195009 11 0.0 0.0 0.00 0.00 0.00 51 931.5
20260502194509 11 0.0 0.0 0.00 0.00 0.00 48 931.4
20260502194009 12 0.0 0.0 0.00 0.00 0.00 46 931.3
20260502193509 12 0.0 0.0 0.00 0.00 0.00 46 931.3
20260502193009 12 0.0 0.0 0.00 0.00 0.00 47 931.3
20260502192509 12 0.0 0.0 0.00 0.00 0.00 46 931.2
20260502192009 13 0.0 0.0 0.00 0.00 0.00 44 931.2
20260502191509 13 0.0 0.0 0.00 0.00 0.00 44 931.1
20260502191009 13 0.0 0.0 0.00 0.00 0.00 44 931.1
20260502190509 13 0.0 0.0 0.00 0.00 0.00 44 931.1
20260502190009 13 0.0 0.0 0.00 0.00 0.00 44 931.0
20260502185509 13 0.0 0.0 0.00 0.00 0.00 43 930.9
20260502185009 13 0.0 0.0 0.00 0.00 0.00 43 930.8
20260502184509 14 0.0 0.0 0.00 0.00 0.00 41 930.7
20260502184009 14 0.0 0.0 0.00 0.00 0.00 41 930.6
20260502183509 14 0.0 0.0 0.00 0.00 0.00 41 930.5
20260502183009 15 0.0 0.0 0.00 0.00 0.00 40 930.5
20260502182509 15 0.0 0.0 0.00 0.00 0.00 39 930.4
20260502182009 15 0.0 0.0 0.00 0.00 0.00 39 930.3
20260502181509 16 0.0 0.0 0.00 0.00 0.00 38 930.3
20260502181009 16 0.0 0.0 0.00 0.00 0.00 37 930.1
20260502180509 16 0.0 0.0 0.00 0.00 0.00 37 930.1
20260502170509 23 0.0 0.0 0.00 0.00 0.00 28 929.2
20260502164009 24 0.0 0.0 0.00 0.00 0.00 24 929.2
20260502163509 24 0.0 0.0 0.00 0.00 0.00 23 929.2
20260502163009 25 0.0 0.0 0.00 0.00 0.00 24 929.2
20260502162509 25 0.0 0.0 0.00 0.00 0.00 21 929.2
20260502162009 25 0.0 0.0 0.00 0.00 0.00 23 929.3
20260502161509 25 0.0 0.0 0.00 0.00 0.00 23 929.3
20260502161009 26 0.0 0.0 0.00 0.00 0.00 21 929.3
20260502160509 26 0.0 0.0 0.00 0.00 0.00 23 929.4
20260502152009 26 0.0 0.0 0.00 0.00 0.00 21 929.8
20260502151509 26 0.0 0.0 0.00 0.00 0.00 20 929.8
20260502151009 26 0.0 0.0 0.00 0.00 0.00 19 929.9
20260502150509 26 0.0 0.0 0.00 0.00 0.00 19 929.9
20260502130509 26 0.0 0.0 0.00 0.00 0.00 21 931.2
20260502123509 27 0.0 0.0 0.00 0.00 0.00 20 931.5
20260502123009 26 0.0 0.0 0.00 0.00 0.00 21 931.5
20260502122509 26 0.0 0.0 0.00 0.00 0.00 19 931.6
20260502122009 26 0.0 0.0 0.00 0.00 0.00 20 931.7
20260502121509 26 0.0 0.0 0.00 0.00 0.00 22 931.7
20260502121009 26 0.0 0.0 0.00 0.00 0.00 22 931.8
20260502120509 26 0.0 0.0 0.00 0.00 0.00 21 931.9
20260502115509 26 0.0 0.0 0.00 0.00 0.00 19 932.0
20260502115009 26 0.0 0.0 0.00 0.00 0.00 21 932.0
20260502114509 26 0.0 0.0 0.00 0.00 0.00 20 932.1
20260502114009 25 0.0 0.0 0.00 0.00 0.00 21 932.2
20260502113509 26 0.0 0.0 0.00 0.00 0.00 20 932.3
20260502113009 26 0.0 0.0 0.00 0.00 0.00 21 932.4
20260502112509 26 0.0 0.0 0.00 0.00 0.00 22 932.5
20260502112009 25 0.0 0.0 0.00 0.00 0.00 20 932.6
20260502111509 24 0.0 0.0 0.00 0.00 0.00 22 932.6
20260502111009 25 0.0 0.0 0.00 0.00 0.00 20 932.7
20260502110509 24 0.0 0.0 0.00 0.00 0.00 21 932.7
20260502110009 23 0.0 0.0 0.00 0.00 0.00 21 932.8
20260502105509 25 0.0 0.0 0.00 0.00 0.00 21 932.9
20260502105009 25 0.0 0.0 0.00 0.00 0.00 21 933.0
20260502104509 25 0.0 0.0 0.00 0.00 0.00 22 933.0
20260502104009 24 0.0 0.0 0.00 0.00 0.00 22 933.1
20260502103509 24 0.0 0.0 0.00 0.00 0.00 22 933.1
20260502103009 24 0.0 0.0 0.00 0.00 0.00 23 933.2
20260502102509 24 0.0 0.0 0.00 0.00 0.00 21 933.3
20260502102009 24 0.0 0.0 0.00 0.00 0.00 23 933.4
20260502101509 25 0.0 0.0 0.00 0.00 0.00 23 933.5
20260502101009 25 0.0 0.0 0.00 0.00 0.00 21 933.5
20260502100509 26 0.0 0.0 0.00 0.00 0.00 21 933.6
20260502091509 31 0.0 0.0 0.00 0.00 0.00 17 934.1
20260502091009 31 0.0 0.0 0.00 0.00 0.00 18 934.2
20260502090509 32 0.0 0.0 0.00 0.00 0.00 16 934.2
20260502071509 21 0.0 0.0 0.00 0.00 0.00 31 935.4
20260502071009 20 0.0 0.0 0.00 0.00 0.00 31 935.4
20260502070509 20 0.0 0.0 0.00 0.00 0.00 31 935.5
20260502070009 20 0.0 0.0 0.00 0.00 0.00 33 935.5
20260502065509 18 0.0 0.0 0.00 0.00 0.00 35 935.7
20260502065009 16 0.0 0.0 0.00 0.00 0.00 37 935.8
20260502064509 19 0.0 0.0 0.00 0.00 0.00 34 935.8
20260502064009 18 0.0 0.0 0.00 0.00 0.00 34 935.8
20260502063509 18 0.0 0.0 0.00 0.00 0.00 35 935.9
20260502063009 19 0.0 0.0 0.00 0.00 0.00 33 935.9
20260502062509 21 0.0 0.0 0.00 0.00 0.00 31 935.8
20260502062009 23 0.0 0.0 0.00 0.00 0.00 29 935.8
20260502061509 25 0.0 0.0 0.00 0.00 0.00 29 935.8
20260502061009 20 0.0 0.0 0.00 0.00 0.00 39 936.0
20260502060509 16 0.0 0.0 0.00 0.00 0.00 50 936.1
20260502060009 7 0.0 0.0 0.00 0.00 0.00 70 936.5
20260502055509 4 0.0 0.0 0.00 0.00 0.00 71 936.6
20260502055009 3 0.0 0.0 0.00 0.00 0.00 71 936.7
20260502054509 3 0.0 0.0 0.00 0.00 0.00 71 936.7
20260502054009 3 0.0 0.0 0.00 0.00 0.00 71 936.7
20260502053509 3 0.0 0.0 0.00 0.00 0.00 72 936.8
20260502053009 3 0.0 0.0 0.00 0.00 0.00 72 936.8
20260502052509 2 0.0 0.0 0.00 0.00 0.00 72 936.8
20260502052009 2 0.0 0.0 0.00 0.00 0.00 71 936.9
20260502051509 2 0.0 0.0 0.00 0.00 0.00 72 936.9
20260502051009 2 0.0 0.0 0.00 0.00 0.00 71 936.9
20260502050509 2 0.0 0.0 0.00 0.00 0.00 72 936.8
20260502050009 2 0.0 0.0 0.00 0.00 0.00 72 936.9
20260502045509 2 0.0 0.0 0.00 0.00 0.00 72 936.8
20260502045009 2 0.0 0.0 0.00 0.00 0.00 72 936.8
20260502044509 2 0.0 0.0 0.00 0.00 0.00 72 936.8
20260502044009 1 0.0 0.0 0.00 0.00 0.00 72 936.8
20260502043509 1 0.0 0.0 0.00 0.00 0.00 72 936.8
20260502043009 2 0.0 0.0 0.00 0.00 0.00 72 936.8
20260502042509 2 0.0 0.0 0.00 0.00 0.00 72 936.8
20260502042009 1 0.0 0.0 0.00 0.00 0.00 72 936.8
20260502041509 2 0.0 0.0 0.00 0.00 0.00 72 936.8
20260502041009 2 0.0 0.0 0.00 0.00 0.00 73 936.8
20260502040509 2 0.0 0.0 0.00 0.00 0.00 72 936.8
20260502040009 2 0.0 0.0 0.00 0.00 0.00 73 936.7
20260502035509 1 0.0 0.0 0.00 0.00 0.00 72 936.7
20260502035009 1 0.0 0.0 0.00 0.00 0.00 72 936.7
20260502034509 1 0.0 0.0 0.00 0.00 0.00 71 936.6
20260502034009 1 0.0 0.0 0.00 0.00 0.00 72 936.6
20260502033509 1 0.0 0.0 0.00 0.00 0.00 71 936.6
20260502033009 2 0.0 0.0 0.00 0.00 0.00 71 936.5
20260502032509 2 0.0 0.0 0.00 0.00 0.00 71 936.5
20260502032009 2 0.0 0.0 0.00 0.00 0.00 71 936.5
20260502031509 2 0.0 0.0 0.00 0.00 0.00 71 936.5
20260502031009 2 0.0 0.0 0.00 0.00 0.00 71 936.5
20260502030509 2 0.0 0.0 0.00 0.00 0.00 71 936.6
20260502030009 2 0.0 0.0 0.00 0.00 0.00 71 936.6
20260502025509 2 0.0 0.0 0.00 0.00 0.00 70 936.6
20260502025009 2 0.0 0.0 0.00 0.00 0.00 70 936.7
20260502024509 2 0.0 0.0 0.00 0.00 0.00 70 936.7
20260502024009 2 0.0 0.0 0.00 0.00 0.00 70 936.7
20260502023509 2 0.0 0.0 0.00 0.00 0.00 70 936.7
20260502023009 2 0.0 0.0 0.00 0.00 0.00 70 936.7
20260502022509 2 0.0 0.0 0.00 0.00 0.00 70 936.7
20260502022009 2 0.0 0.0 0.00 0.00 0.00 69 936.7
20260502021509 2 0.0 0.0 0.00 0.00 0.00 69 936.7
20260502021009 2 0.0 0.0 0.00 0.00 0.00 69 936.7
20260502020509 2 0.0 0.0 0.00 0.00 0.00 69 936.7
20260502020009 2 0.0 0.0 0.00 0.00 0.00 69 936.6
20260502015509 3 0.0 0.0 0.00 0.00 0.00 69 936.7
20260502015009 2 0.0 0.0 0.00 0.00 0.00 69 936.7
20260502014509 2 0.0 0.0 0.00 0.00 0.00 68 936.7
20260502014009 2 0.0 0.0 0.00 0.00 0.00 68 936.7
20260502013509 3 0.0 0.0 0.00 0.00 0.00 68 936.6
20260502013009 3 0.0 0.0 0.00 0.00 0.00 68 936.6
20260502012509 3 0.0 0.0 0.00 0.00 0.00 68 936.6
20260502012009 3 0.0 0.0 0.00 0.00 0.00 68 936.7
20260502011509 3 0.0 0.0 0.00 0.00 0.00 68 936.8
20260502011009 2 0.0 0.0 0.00 0.00 0.00 68 936.8
20260502010509 2 0.0 0.0 0.00 0.00 0.00 66 936.8
20260502010009 3 0.0 0.0 0.00 0.00 0.00 67 936.7
20260502005509 3 0.0 0.0 0.00 0.00 0.00 68 936.8
20260502005009 3 0.0 0.0 0.00 0.00 0.00 67 936.7
20260502004509 3 0.0 0.0 0.00 0.00 0.00 67 936.8
20260502004009 3 0.0 0.0 0.00 0.00 0.00 67 936.8
20260502003509 3 0.0 0.0 0.00 0.00 0.00 67 936.8
20260502003009 3 0.0 0.0 0.00 0.00 0.00 66 936.9
20260502002509 3 0.0 0.0 0.00 0.00 0.00 65 936.9
20260502002009 3 0.0 0.0 0.00 0.00 0.00 66 937.0
20260502001509 4 0.0 0.0 0.00 0.00 0.00 65 937.0
20260502001009 3 0.0 0.0 0.00 0.00 0.00 66 937.0
20260502000509 3 0.0 0.0 0.00 0.00 0.00 65 937.1
20260502000009 3 0.0 0.0 0.00 0.00 0.00 65 937.1
20260501235509 3 0.0 0.0 0.00 0.00 0.00 64 937.1
20260501235009 4 0.0 0.0 0.00 0.00 0.00 64 937.1
20260501234509 4 0.0 0.0 0.00 0.00 0.00 64 937.0
20260501234009 4 0.0 0.0 0.00 0.00 0.00 64 937.1
20260501233509 4 0.0 0.0 0.00 0.00 0.00 64 937.1
20260501233009 4 0.0 0.0 0.00 0.00 0.00 63 937.1
20260501232509 4 0.0 0.0 0.00 0.00 0.00 63 937.2